Regional Weather Roundup
Issued by NWS

Home | Current Version | Previous Version | Graphics & Text | Print | Product List | Glossary On
Versions: 1 2 3 4 5 6 7 8 9 10 11 12 13 14 15 16 17 18 19 20 21 22 23 24 25 26 27 28 29 30 31 32 33 34 35 36 37 38 39 40 41 42 43 44 45 46 47 48 49 50
000
ASUS43 KBIS 311901
RWRND

NORTH DAKOTA REGIONAL WEATHER ROUNDUP
NATIONAL WEATHER SERVICE BISMARCK ND
100 PM CST SAT JAN 31 2015

NOTE: "FAIR" INDICATES FEW OR NO CLOUDS BELOW 12,000 FEET WITH NO
SIGNIFICANT WEATHER AND/OR OBSTRUCTIONS TO VISIBILITY.


NDZ001>003-009>011-017-312000-
NORTHWEST NORTH DAKOTA

CITY           SKY/WX    TMP DP  RH WIND       PRES   REMARKS
WILLISTON      LGT SNOW  10   4  76 NE13      30.31S VSB 3/4 WCI  -5
MINOT          LGT SNOW   3  -4  72 NE15      30.37F VSB 3/4 WCI -16
MINOT AFB      LGT SNOW   4   0  85 NE15      30.38F FOG     WCI -15
$$

NDZ018>021-031>035-040>046-312000-
SOUTHWEST NORTH DAKOTA

CITY           SKY/WX    TMP DP  RH WIND       PRES   REMARKS
BISMARCK       MOSUNNY   15   4  61 E15G24    30.28F WCI   0
DICKINSON      LGT SNOW  13   9  84 E20       30.14F FOG     WCI  -5
GARRISON         N/A      8   0  69 NE12      30.31R WCI  -7
HETTINGER ARPT CLOUDY    18  16  92 E20       30.12S FOG     WCI   2
$$

NDZ004>008-012>016-024-026-027-054-312000-
NORTHEAST NORTH DAKOTA

CITY           SKY/WX    TMP DP  RH WIND       PRES   REMARKS
GRAND FORKS    CLOUDY     2  -8  63 N18       30.46S WCI -19
GRND FRKS AFB  FAIR       1 -10  59 N20G26    30.46S WCI -20
DEVILS LAKE    MOSUNNY    0 -11  60 NE17G23   30.40S WCI -21
$$

NDZ022-023-025-028>030-036>039-047>053-312000-
SOUTHEAST NORTH DAKOTA

CITY           SKY/WX    TMP DP  RH WIND       PRES   REMARKS
FARGO          SUNNY     13  -3  49 N21       30.35F WCI  -5
JAMESTOWN      CLOUDY    10  -3  55 NE23      30.30F WCI -10
$$



USA.gov is the U.S. government's official web portal to all federal, state and local government web resources and services.